Flag for Hungary Weather past 2 weeks in Debrecen, Hungary

Now
31 °F

Chilly.


Feels Like: 31 °F
Forecast: 27 / 38 °F
Wind: 2 mph from Southeast

Location: Debrecen

Current Time: Jan 27, 2015 at 4:38:50 AM

Latest Report: Jan 27, 2015 at 4:00 AM


Visibility: N/A

Pressure: 30.09 "Hg

Humidity: 93%

Dew point: 29 °F

Location of DebrecenLocation

Historic Weather in Debrecen — Graph

°F

Debrecen temperature yesterday

Maximum temperature yesterday: 39 °F (at 3:00 PM)
Minimum temperature yesterday: 32 °F (at 10:00 PM)
Average temperature yesterday: 35 °F

Past Weeks' High & Low Weather Summary

 TemperatureHumidityPressure
High51 °F (Jan 21, 3:00 PM)100% (Jan 15, 8:00 AM)30.30 "Hg (Jan 15, 8:00 AM)
Low26 °F (Jan 14, 7:00 AM)50% (Jan 16, 2:00 PM)29.74 "Hg (Jan 24, 2:00 PM)
Average39 °F88%30.04 "Hg
* Reported Jan 12 3:00 AM — Jan 27 3:00 AM, Debrecen, Weather by CustomWeather, © 2014

Note: Actual official high and low records may vary slightly from our data, if they occured in-between our weather recording intervals... More about our weather records

Advertising

Debrecen weather history for previous 24 hours

 ConditionsComfort  
Time TempWeatherWind HumidityBarometerVisibility
3:00 AM
Jan 27
31 °FChilly.1 mph95%30.11 "HgN/A
2:00 AM31 °FChilly.2 mph93%30.12 "HgN/A
1:00 AM31 °FChilly.No wind93%30.14 "HgN/A
12:00 AM31 °FChilly.1 mph90%30.16 "HgN/A
11:00 PM
Jan 26
32 °FChilly.No wind87%30.17 "HgN/A
10:00 PM32 °FChilly.1 mph87%30.19 "HgN/A
9:00 PM33 °FChilly.No wind84%30.19 "HgN/A
8:00 PM33 °FChilly.2 mph81%30.20 "HgN/A
7:00 PM33 °FChilly.2 mph79%30.20 "HgN/A
6:00 PM34 °FChilly.No wind80%30.21 "HgN/A
5:00 PM36 °FPassing clouds.1 mph72%30.20 "Hg6 mi
4:00 PM37 °FPartly sunny.3 mph71%30.19 "Hg9 mi
3:00 PM39 °FScattered clouds.3 mph64%30.19 "Hg12 mi
2:00 PM39 °FPartly sunny.3 mph67%30.19 "Hg12 mi
1:00 PM38 °FOvercast.5 mph67%30.21 "Hg12 mi
12:00 PM38 °FScattered clouds.5 mph67%30.22 "Hg12 mi
11:00 AM36 °FPartly sunny.6 mph70%30.23 "Hg11 mi
10:00 AM34 °FOvercast.7 mph71%30.23 "Hg12 mi
9:00 AM34 °FOvercast.7 mph72%30.22 "Hg12 mi
8:00 AM34 °FOvercast.6 mph73%30.22 "Hg12 mi
7:00 AM33 °FOvercast.7 mph73%30.20 "Hg12 mi
6:00 AM33 °FOvercast.6 mph75%30.19 "Hg12 mi
5:00 AM33 °FChilly.7 mph73%30.17 "HgN/A
4:00 AM33 °FChilly.6 mph73%30.17 "HgN/A
Weather by CustomWeather, © 2014

See weather overviewHow to use our weather pages